Location: Unspecified
(51.5147°N, 7.4673°E)
Time: 02:25:33
(UTC+01:00)

Vanguard 1 Rocket - Pass Details

Date: 18 February 2026
Orbit: 653 x 4214 km, 34.3° (Epoch: 12 March)

Event Time Altitude Azimuth Distance (km) Brightness Sun altitude
Rises 17:41:32 0° 263° (W) 5,612 13.6 0.5°
Reaches altitude 10° 17:44:57 10° 255° (WSW) 5,020 13.5 0.0°
Maximum altitude 17:59:02 39° 194° (SSW) 4,448 11.2 -2.1°
Drops below altitude 10° 18:20:16 10° 137° (SE) 7,388 11.7 -5.3°
Sets 18:26:52 0° 131° (SE) 8,438 11.9 -6.3°
